| time (UTC) | temp C | wind direction | speed KPH | gust KPH | rain 1hr cm | rain 24hr cm | rain mn cm | humidity % | barometer mb |
| 20260504223503 | 20 | 87 | 4.8 | 20.9 | 0.00 | 0.00 | 0.00 | 35 | 1007.0 |
| 20260504223006 | 20 | 221 | 3.2 | 20.9 | 0.00 | 0.00 | 0.00 | 35 | 1006.8 |
| 20260504222504 | 20 | 181 | 1.6 | 8.0 | 0.00 | 0.00 | 0.00 | 33 | 1006.8 |
| 20260504222003 | 21 | 213 | 1.6 | 12.9 | 0.00 | 0.00 | 0.00 | 31 | 1006.8 |
| 20260504221509 | 21 | 89 | 3.2 | 12.9 | 0.00 | 0.00 | 0.00 | 30 | 1006.7 |
| 20260504221008 | 21 | 225 | 4.8 | 24.1 | 0.00 | 0.00 | 0.00 | 30 | 1006.8 |
| 20260504220505 | 21 | 261 | 11.3 | 24.1 | 0.00 | 0.00 | 0.00 | 29 | 1006.6 |
| 20260504215504 | 21 | 259 | 4.8 | 16.1 | 0.00 | 0.00 | 0.00 | 29 | 1006.7 |
| 20260504215004 | 21 | 260 | 3.2 | 16.1 | 0.00 | 0.00 | 0.00 | 29 | 1006.8 |
| 20260504214506 | 21 | 221 | 4.8 | 16.1 | 0.00 | 0.00 | 0.00 | 29 | 1006.7 |
| 20260504214004 | 21 | 256 | 4.8 | 19.3 | 0.00 | 0.00 | 0.00 | 29 | 1006.8 |
| 20260504213504 | 21 | 306 | 8.0 | 22.5 | 0.00 | 0.00 | 0.00 | 28 | 1006.7 |
| 20260504213009 | 21 | 317 | 8.0 | 22.5 | 0.00 | 0.00 | 0.00 | 29 | 1006.7 |
| 20260504212503 | 21 | 306 | 9.7 | 19.3 | 0.00 | 0.00 | 0.00 | 29 | 1006.8 |
| 20260504212002 | 21 | 130 | 3.2 | 19.3 | 0.00 | 0.00 | 0.00 | 29 | 1006.7 |
| 20260504211510 | 21 | 341 | 8.0 | 16.1 | 0.00 | 0.00 | 0.00 | 28 | 1006.9 |
| 20260504211005 | 21 | 242 | 6.4 | 22.5 | 0.00 | 0.00 | 0.00 | 28 | 1006.9 |
| 20260504210504 | 21 | 289 | 6.4 | 22.5 | 0.00 | 0.00 | 0.00 | 28 | 1006.8 |
| 20260504210007 | 21 | 292 | 9.7 | 19.3 | 0.00 | 0.00 | 0.00 | 29 | 1006.8 |
| 20260504205505 | 21 | 288 | 4.8 | 14.5 | 0.00 | 0.00 | 0.00 | 30 | 1006.8 |
| 20260504205004 | 21 | 22 | 4.8 | 16.1 | 0.00 | 0.00 | 0.00 | 29 | 1006.8 |
| 20260504204508 | 21 | 269 | 4.8 | 16.1 | 0.00 | 0.00 | 0.00 | 29 | 1006.8 |
| 20260504203011 | 22 | 315 | 12.9 | 32.2 | 0.00 | 0.00 | 0.00 | 27 | 1006.8 |
| 20260504202511 | 21 | 298 | 8.0 | 27.4 | 0.00 | 0.00 | 0.00 | 28 | 1006.7 |
| 20260504202007 | 22 | 292 | 6.4 | 24.1 | 0.00 | 0.00 | 0.00 | 28 | 1006.8 |
| 20260504201513 | 21 | 301 | 6.4 | 17.7 | 0.00 | 0.00 | 0.00 | 28 | 1006.8 |
| 20260504201004 | 22 | 273 | 4.8 | 19.3 | 0.00 | 0.00 | 0.00 | 28 | 1006.8 |
| 20260504200505 | 22 | 274 | 3.2 | 19.3 | 0.00 | 0.00 | 0.00 | 28 | 1006.9 |
| 20260504200013 | 21 | 329 | 9.7 | 19.3 | 0.00 | 0.00 | 0.00 | 28 | 1006.9 |
| 20260504195503 | 21 | 331 | 8.0 | 22.5 | 0.00 | 0.00 | 0.00 | 27 | 1007.0 |
| 20260504195005 | 21 | 273 | 4.8 | 22.5 | 0.00 | 0.00 | 0.00 | 27 | 1006.9 |
| 20260504194510 | 22 | 236 | 6.4 | 22.5 | 0.00 | 0.00 | 0.00 | 27 | 1006.9 |
| 20260504194005 | 22 | 331 | 9.7 | 22.5 | 0.00 | 0.00 | 0.00 | 27 | 1006.9 |
| 20260504193505 | 22 | 281 | 4.8 | 22.5 | 0.00 | 0.00 | 0.00 | 27 | 1006.9 |
| 20260504193013 | 22 | 136 | 8.0 | 20.9 | 0.00 | 0.00 | 0.00 | 27 | 1006.9 |
| 20260504192508 | 21 | 255 | 8.0 | 20.9 | 0.00 | 0.00 | 0.00 | 27 | 1006.8 |
| 20260504191004 | 21 | 252 | 9.7 | 30.6 | 0.00 | 0.00 | 0.00 | 27 | 1006.9 |
| 20260504190502 | 21 | 301 | 3.2 | 20.9 | 0.00 | 0.00 | 0.00 | 28 | 1007.1 |
| 20260504190004 | 21 | 311 | 8.0 | 24.1 | 0.00 | 0.00 | 0.00 | 26 | 1007.0 |
| 20260504185503 | 22 | 246 | 11.3 | 24.1 | 0.00 | 0.00 | 0.00 | 25 | 1007.2 |
| 20260504185003 | 22 | 235 | 3.2 | 24.1 | 0.00 | 0.00 | 0.00 | 27 | 1007.3 |
| 20260504184505 | 22 | 250 | 11.3 | 24.1 | 0.00 | 0.00 | 0.00 | 27 | 1007.3 |
| 20260504184004 | 22 | 274 | 8.0 | 22.5 | 0.00 | 0.00 | 0.00 | 25 | 1007.3 |
| 20260504183504 | 21 | 9 | 4.8 | 25.7 | 0.00 | 0.00 | 0.00 | 26 | 1007.5 |
| 20260504183005 | 21 | 334 | 9.7 | 25.7 | 0.00 | 0.00 | 0.00 | 26 | 1007.6 |
| 20260504182505 | 21 | 337 | 8.0 | 17.7 | 0.00 | 0.00 | 0.00 | 27 | 1007.3 |
| 20260504181510 | 21 | 86 | 4.8 | 20.9 | 0.00 | 0.00 | 0.00 | 27 | 1007.5 |
| 20260504180508 | 21 | 352 | 8.0 | 17.7 | 0.00 | 0.00 | 0.00 | 26 | 1007.5 |
| 20260504180015 | 21 | 24 | 9.7 | 27.4 | 0.00 | 0.00 | 0.00 | 26 | 1007.7 |
| 20260504175512 | 21 | 178 | 4.8 | 27.4 | 0.00 | 0.00 | 0.00 | 27 | 1007.7 |
| 20260504175003 | 21 | 343 | 3.2 | 22.5 | 0.00 | 0.00 | 0.00 | 28 | 1007.8 |
| 20260504174504 | 21 | 225 | 8.0 | 24.1 | 0.00 | 0.00 | 0.00 | 27 | 1007.9 |
| 20260504174003 | 21 | 40 | 11.3 | 25.7 | 0.00 | 0.00 | 0.00 | 28 | 1007.8 |
| 20260504173504 | 21 | 301 | 11.3 | 25.7 | 0.00 | 0.00 | 0.00 | 27 | 1008.0 |
| 20260504173006 | 21 | 282 | 8.0 | 24.1 | 0.00 | 0.00 | 0.00 | 27 | 1007.9 |
| 20260504172504 | 20 | 240 | 9.7 | 25.7 | 0.00 | 0.00 | 0.00 | 29 | 1008.1 |
| 20260504172004 | 20 | 319 | 9.7 | 25.7 | 0.00 | 0.00 | 0.00 | 27 | 1008.1 |
| 20260504171510 | 21 | 351 | 11.3 | 25.7 | 0.00 | 0.00 | 0.00 | 27 | 1008.0 |
| 20260504171008 | 20 | 231 | 4.8 | 30.6 | 0.00 | 0.00 | 0.00 | 28 | 1007.9 |
| 20260504150504 | 19 | 142 | 4.8 | 20.9 | 0.00 | 0.00 | 0.00 | 32 | 1009.3 |
| 20260504140502 | 17 | 156 | 6.4 | 22.5 | 0.00 | 0.00 | 0.00 | 34 | 1009.4 |
| 20260504130507 | 14 | 277 | 1.6 | 14.5 | 0.00 | 0.00 | 0.00 | 44 | 1010.3 |
| 20260504110508 | 7 | 269 | 1.6 | 9.7 | 0.00 | 0.00 | 0.00 | 59 | 1010.6 |
| 20260504100503 | 5 | 267 | 0.0 | 3.2 | 0.00 | 0.00 | 0.00 | 65 | 1010.7 |
| 20260504082003 | 6 | 322 | 0.0 | 8.0 | 0.00 | 0.00 | 0.00 | 60 | 1010.3 |
| 20260504081515 | 6 | 291 | 0.0 | 6.4 | 0.00 | 0.00 | 0.00 | 60 | 1010.2 |
| 20260504081007 | 6 | 343 | 0.0 | 4.8 | 0.00 | 0.00 | 0.00 | 59 | 1010.2 |
| 20260504080504 | 6 | 257 | 0.0 | 4.8 | 0.00 | 0.00 | 0.00 | 61 | 1010.2 |
| 20260504050503 | 6 | 279 | 0.0 | 3.2 | 0.00 | 0.00 | 0.00 | 58 | 1010.2 |
| 20260504050012 | 6 | 279 | 0.0 | 3.2 | 0.00 | 0.00 | 0.00 | 56 | 1010.1 |
| 20260504045504 | 6 | 279 | 1.6 | 3.2 | 0.00 | 0.00 | 0.00 | 58 | 1010.1 |
| 20260504045003 | 5 | 279 | 0.0 | 3.2 | 0.00 | 0.00 | 0.00 | 59 | 1010.2 |
| 20260504044514 | 5 | 275 | 1.6 | 3.2 | 0.00 | 0.00 | 0.00 | 60 | 1010.3 |
| 20260504044008 | 5 | 287 | 1.6 | 3.2 | 0.00 | 0.00 | 0.00 | 62 | 1010.3 |
| 20260504043508 | 4 | 294 | 1.6 | 4.8 | 0.00 | 0.00 | 0.00 | 65 | 1010.3 |
| 20260504043021 | 4 | 275 | 1.6 | 4.8 | 0.00 | 0.00 | 0.00 | 66 | 1010.3 |
| 20260504042507 | 3 | 275 | 3.2 | 4.8 | 0.00 | 0.00 | 0.00 | 66 | 1010.2 |
| 20260504042007 | 3 | 269 | 1.6 | 4.8 | 0.00 | 0.00 | 0.00 | 67 | 1010.2 |
| 20260504041520 | 3 | 269 | 1.6 | 4.8 | 0.00 | 0.00 | 0.00 | 69 | 1010.2 |
| 20260504041010 | 3 | 267 | 3.2 | 4.8 | 0.00 | 0.00 | 0.00 | 69 | 1010.2 |
| 20260504040510 | 3 | 274 | 1.6 | 3.2 | 0.00 | 0.00 | 0.00 | 69 | 1010.1 |
| 20260504040025 | 3 | 274 | 1.6 | 3.2 | 0.00 | 0.00 | 0.00 | 70 | 1010.1 |
| 20260504035512 | 3 | 274 | 1.6 | 3.2 | 0.00 | 0.00 | 0.00 | 69 | 1010.1 |
| 20260504035004 | 3 | 260 | 1.6 | 3.2 | 0.00 | 0.00 | 0.00 | 68 | 1010.0 |
| 20260504034510 | 3 | 281 | 0.0 | 3.2 | 0.00 | 0.00 | 0.00 | 69 | 1010.0 |
| 20260504034007 | 2 | 278 | 1.6 | 3.2 | 0.00 | 0.00 | 0.00 | 69 | 1010.1 |
| 20260504033505 | 2 | 280 | 1.6 | 3.2 | 0.00 | 0.00 | 0.00 | 69 | 1010.0 |
| 20260504033017 | 2 | 265 | 1.6 | 3.2 | 0.00 | 0.00 | 0.00 | 70 | 1010.0 |
| 20260504032509 | 2 | 265 | 1.6 | 4.8 | 0.00 | 0.00 | 0.00 | 70 | 1010.0 |
| 20260504032009 | 2 | 268 | 1.6 | 4.8 | 0.00 | 0.00 | 0.00 | 70 | 1010.0 |
| 20260504031524 | 2 | 267 | 1.6 | 4.8 | 0.00 | 0.00 | 0.00 | 71 | 1009.9 |
| 20260504031008 | 2 | 253 | 1.6 | 4.8 | 0.00 | 0.00 | 0.00 | 71 | 1009.9 |
| 20260504030507 | 2 | 266 | 1.6 | 4.8 | 0.00 | 0.00 | 0.00 | 72 | 1009.9 |
| 20260504030023 | 2 | 266 | 1.6 | 4.8 | 0.00 | 0.00 | 0.00 | 72 | 1009.9 |
| 20260504025503 | 2 | 266 | 1.6 | 3.2 | 0.00 | 0.00 | 0.00 | 71 | 1009.9 |
| 20260504025003 | 2 | 266 | 1.6 | 3.2 | 0.00 | 0.00 | 0.00 | 71 | 1009.8 |
| 20260504024507 | 2 | 266 | 1.6 | 3.2 | 0.00 | 0.00 | 0.00 | 71 | 1009.7 |
| 20260504024003 | 2 | 266 | 1.6 | 3.2 | 0.00 | 0.00 | 0.00 | 71 | 1009.7 |
| 20260504023504 | 2 | 266 | 1.6 | 3.2 | 0.00 | 0.00 | 0.00 | 70 | 1009.7 |
| 20260504023013 | 2 | 266 | 1.6 | 1.6 | 0.00 | 0.00 | 0.00 | 70 | 1009.7 |
| 20260504022509 | 2 | 266 | 1.6 | 1.6 | 0.00 | 0.00 | 0.00 | 70 | 1009.7 |
| 20260504022007 | 2 | 266 | 1.6 | 1.6 | 0.00 | 0.00 | 0.00 | 69 | 1009.7 |
| 20260504021520 | 3 | 266 | 1.6 | 1.6 | 0.00 | 0.00 | 0.00 | 69 | 1009.7 |
| 20260504021007 | 3 | 266 | 1.6 | 1.6 | 0.00 | 0.00 | 0.00 | 69 | 1009.7 |
| 20260504020508 | 3 | 266 | 1.6 | 1.6 | 0.00 | 0.00 | 0.00 | 69 | 1009.7 |
| 20260504020022 | 3 | 266 | 1.6 | 1.6 | 0.00 | 0.00 | 0.00 | 68 | 1009.6 |
| 20260504015506 | 3 | 266 | 1.6 | 1.6 | 0.00 | 0.00 | 0.00 | 68 | 1009.7 |
| 20260504015011 | 3 | 266 | 1.6 | 1.6 | 0.00 | 0.00 | 0.00 | 67 | 1009.7 |
| 20260504014506 | 3 | 266 | 1.6 | 1.6 | 0.00 | 0.00 | 0.00 | 67 | 1009.7 |
| 20260504014003 | 3 | 266 | 1.6 | 1.6 | 0.00 | 0.00 | 0.00 | 67 | 1009.7 |
| 20260504013503 | 3 | 266 | 0.0 | 1.6 | 0.00 | 0.00 | 0.00 | 67 | 1009.6 |
| 20260504013012 | 3 | 266 | 1.6 | 1.6 | 0.00 | 0.00 | 0.00 | 66 | 1009.6 |
| 20260504012504 | 3 | 266 | 0.0 | 1.6 | 0.00 | 0.00 | 0.00 | 67 | 1009.6 |
| 20260504012004 | 4 | 266 | 1.6 | 1.6 | 0.00 | 0.00 | 0.00 | 66 | 1009.6 |
| 20260504011512 | 4 | 266 | 0.0 | 1.6 | 0.00 | 0.00 | 0.00 | 65 | 1009.5 |
| 20260504011006 | 4 | 266 | 0.0 | 1.6 | 0.00 | 0.00 | 0.00 | 64 | 1009.4 |
| 20260504010506 | 5 | 266 | 0.0 | 1.6 | 0.00 | 0.00 | 0.00 | 62 | 1009.4 |
| 20260504010018 | 5 | 266 | 1.6 | 3.2 | 0.00 | 0.00 | 0.00 | 61 | 1009.3 |
| 20260504005508 | 5 | 266 | 1.6 | 3.2 | 0.00 | 0.00 | 0.00 | 61 | 1009.2 |
| 20260504005008 | 5 | 266 | 0.0 | 0.0 | 0.00 | 0.00 | 0.00 | 60 | 1009.1 |
| 20260504004526 | 5 | 266 | 0.0 | 0.0 | 0.00 | 0.00 | 0.00 | 59 | 1009.1 |
| 20260504004009 | 6 | 266 | 0.0 | 0.0 | 0.00 | 0.00 | 0.00 | 57 | 1009.0 |
| 20260504003511 | 6 | 266 | 0.0 | 0.0 | 0.00 | 0.00 | 0.00 | 56 | 1008.9 |
| 20260504003006 | 6 | 266 | 0.0 | 0.0 | 0.00 | 0.00 | 0.00 | 54 | 1008.9 |
| 20260504002503 | 7 | 266 | 0.0 | 3.2 | 0.00 | 0.00 | 0.00 | 52 | 1008.9 |
| 20260504002004 | 7 | 266 | 0.0 | 3.2 | 0.00 | 0.00 | 0.00 | 48 | 1008.8 |
| 20260504001511 | 7 | 266 | 0.0 | 3.2 | 0.00 | 0.00 | 0.00 | 47 | 1008.8 |
| 20260504001004 | 7 | 266 | 0.0 | 3.2 | 0.00 | 0.00 | 0.00 | 47 | 1008.7 |
| 20260504000506 | 8 | 266 | 0.0 | 3.2 | 0.00 | 0.00 | 0.00 | 47 | 1008.7 |
| 20260504000042 | 8 | 269 | 0.0 | 3.2 | 0.00 | 0.00 | 0.00 | 45 | 1008.7 |
| 20260503235510 | 8 | 269 | 1.6 | 4.8 | 0.00 | 0.00 | 0.00 | 44 | 1008.6 |
| 20260503235008 | 9 | 309 | 1.6 | 4.8 | 0.00 | 0.00 | 0.00 | 42 | 1008.5 |
| 20260503234522 | 9 | 344 | 0.0 | 17.7 | 0.00 | 0.00 | 0.00 | 41 | 1008.5 |
| 20260503234011 | 10 | 300 | 3.2 | 17.7 | 0.00 | 0.00 | 0.00 | 40 | 1008.5 |
| 20260503233510 | 10 | 294 | 9.7 | 14.5 | 0.00 | 0.00 | 0.00 | 40 | 1008.4 |
| 20260503233023 | 10 | 307 | 3.2 | 12.9 | 0.00 | 0.00 | 0.00 | 38 | 1008.4 |
| 20260503232511 | 10 | 309 | 6.4 | 11.3 | 0.00 | 0.00 | 0.00 | 39 | 1008.4 |
| 20260503232013 | 10 | 292 | 4.8 | 16.1 | 0.00 | 0.00 | 0.00 | 37 | 1008.2 |
| 20260503231509 | 10 | 321 | 1.6 | 16.1 | 0.00 | 0.00 | 0.00 | 38 | 1008.3 |
| 20260503231004 | 10 | 293 | 8.0 | 16.1 | 0.00 | 0.00 | 0.00 | 37 | 1008.1 |
| 20260503230507 | 10 | 337 | 4.8 | 14.5 | 0.00 | 0.00 | 0.00 | 37 | 1008.1 |
| 20260503230016 | 10 | 290 | 3.2 | 20.9 | 0.00 | 0.00 | 0.00 | 39 | 1007.9 |
| 20260503225508 | 10 | 312 | 6.4 | 20.9 | 0.00 | 0.00 | 0.00 | 36 | 1007.9 |
| 20260503225007 | 10 | 300 | 8.0 | 19.3 | 0.00 | 0.00 | 0.00 | 37 | 1008.0 |
| 20260503224519 | 10 | 306 | 6.4 | 25.7 | 0.00 | 0.00 | 0.00 | 36 | 1008.0 |
| 20260503224009 | 10 | 293 | 12.9 | 25.7 | 0.00 | 0.00 | 0.00 | 36 | 1008.0 |